Location: Arboyeti
(42.1122°N, 44.6017°E)
Time: 15:38:22
(UTC+00:00)

SL-16 R/B - Pass Details

Date: 19 April 2021
Orbit: 840 x 849 km, 71.0° (Epoch: 06 May)

Event Time Altitude Azimuth Distance (km) Brightness Sun altitude
Rises 20:19:05 0° 320° (NW) 3,418 6.2 -35.6°
Reaches altitude 10° 20:22:12 10° 304° (WNW) 2,476 5.1 -35.7°
Enters shadow 20:24:13 16° 285° (WNW) 2,054 4.4 -35.8°
